Tracking 30703 objects as of 13-Jun-2025
HD Live streaming from Space Station
objects crossing your sky now

ONEWEB-0581

Track ONEWEB-0581 now!
10-day predictions
ONEWEB-0581 is classified as:


NORAD ID: 56069
Int'l Code: 2023-043Z
Perigee: 1,203.8 km
Apogee: 1,205.9 km
Inclination: 87.9 °
Period: 109.4 minutes
Semi major axis: 7575 km
RCS: Unknown
Launch date: March 26, 2023
Source: United Kingdom (UK)
Launch site: SRIHARIKOTA (SRI)
Your satellite tracking list
Your tracking list is empty




NASA's NSSDC Master Catalog

Two Line Element Set (TLE):
1 56069U 23043Z   25164.41300379 -.00000053  00000-0 -17262-3 0  9994
2 56069  87.9038 302.2938 0001395 104.0335 256.0951 13.16596248110436
Source of the keplerian elements: AFSPC